Regional Weather Roundup
Issued by NWS

Home | Current Version | Previous Version | Graphics & Text | Print | Product List | Glossary On
Versions: 1 2 3 4 5 6 7 8 9 10 11 12 13 14 15 16 17 18 19 20 21 22 23 24 25 26 27 28 29 30 31 32 33 34 35 36 37 38 39 40 41 42 43 44 45 46 47 48 49 50
000
ASUS43 KIND 240600
RWRIN

WEATHER ROUNDUP FOR INDIANA
NATIONAL WEATHER SERVICE INDIANAPOLIS IN
200 AM EDT TUE OCT 24 2017

NOTE: "FAIR" INDICATES FEW OR NO CLOUDS BELOW 12,000 FEET WITH NO
SIGNIFICANT WEATHER AND/OR OBSTRUCTIONS TO VISIBILITY.

* - STATION DOES NOT REPORT WEATHER SUCH AS PRECIPITATION OR FOG.

+ - STATION NOT QUALITY CONTROLLED BY THE NATIONAL WEATHER SERVICE.
    USE DATA WITH CAUTION...ESPECIALLY DEWPOINT AND RELATIVE
    HUMIDITY OBSERVATIONS.

INZ001>003-010>013-019-020-240700-
NORTHWEST INDIANA

CITY           SKY/WX    TMP DP  RH WIND       PRES   REMARKS
MONTICELLO +   DRIZZLE   49  48  96 W8G17     29.62F
6HR MIN TEMP:  49; 6HR MAX TEMP:  50; 6HR PCP:  0.07;


$$

LMZ046-743>745-240700-
SOUTHERN LAKE MICHIGAN

STATION/POSITION TIME  TEMP    WIND        PRES    WAVE
                       AIR SEA DIR/SP/G            HT
                 (UTC) (F)     (DEG/KT/KT) (MB)    (FT)
BURNS HARBOR     0540   53     270/ 20/ 27 1002.0F
MICHIGAN CITY    0530   53     240/ 25/ 27   N/A
5NW MICH CITY    0550   53 57  280/ 19/ 25   N/A     5

$$

INZ004-005-014>016-021>024-240700-
NORTH CENTRAL INDIANA

CITY           SKY/WX    TMP DP  RH WIND       PRES   REMARKS
GOSHEN         CLOUDY    50  45  83 SW10      29.57F
6HR MIN TEMP:  50; 6HR MAX TEMP:  53; 6HR PCP:  0.10;

PERU/GRISSOM   LGT RAIN  50  50 100 SW10      29.61F
6HR MIN TEMP:  49; 6HR MAX TEMP:  51; 6HR PCP:  0.04;

SOUTH BEND     CLOUDY    49  49 100 SW8       29.56F
6HR MIN TEMP:  49; 6HR MAX TEMP:  52; 6HR PCP: TRACE;


$$

INZ006>009-017-018-025>027-240700-
NORTHEAST INDIANA

CITY           SKY/WX    TMP DP  RH WIND       PRES   REMARKS
FORT WAYNE     CLOUDY    50  47  89 SW12      29.62S
6HR MIN TEMP:  50; 6HR MAX TEMP:  52; 6HR PCP:  0.22;

KENDALLVILLE + CLOUDY    48  47  94 SW9       29.59S

$$

INZ028-029-035-036-043>045-051>053-240700-
WEST CENTRAL INDIANA

CITY           SKY/WX    TMP DP  RH WIND       PRES   REMARKS
LAFAYETTE      LGT RAIN  49  49 100 W10       29.64F
6HR MIN TEMP:  49; 6HR MAX TEMP:  50; 6HR PCP:  0.06;

TERRE HAUTE    MOCLDY    50  46  86 W6        29.72F
6HR MIN TEMP:  49; 6HR MAX TEMP:  52; 6HR PCP:  0.06;


$$

INZ030>032-037>040-046>048-054>057-064-065-240700-
CENTRAL INDIANA

CITY           SKY/WX    TMP DP  RH WIND       PRES   REMARKS
GREENWOOD *+   CLOUDY    52  49  90 SW10G18   29.68F
6HR MIN TEMP:  49; 6HR MAX TEMP:  52;

INDIANAPOLIS   LGT RAIN  50  48  93 SW13      29.68F
6HR MIN TEMP:  48; 6HR MAX TEMP:  50; 6HR PCP:  0.03;

-EAGLE CREEK   LGT RAIN  50  47  89 SW7       29.66F
6HR MIN TEMP:  48; 6HR MAX TEMP:  50; 6HR PCP:  0.05;

KOKOMO +       LGT RAIN  50  49  96 SW12      29.63F
6HR MIN TEMP:  49; 6HR MAX TEMP:  50; 6HR PCP:  0.02;

MT COMFORT *+  CLOUDY    48  48 100 S7        29.67F
SHELBYVILLE    LGT RAIN  50  46  86 S13       29.68F
6HR MIN TEMP:  47; 6HR MAX TEMP:  50; 6HR PCP:  0.20;


$$

INZ033-034-041-042-049-050-058-059-240700-
EAST CENTRAL INDIANA

CITY           SKY/WX    TMP DP  RH WIND       PRES   REMARKS
MUNCIE         CLOUDY    50  46  86 SW7       29.65F
6HR MIN TEMP:  49; 6HR MAX TEMP:  51; 6HR PCP:  0.22;

RICHMOND +     CLOUDY    45  45 100 SW10      29.70F

$$

INZ060-061-067>069-081>083-085>088-240700-
SOUTHWEST INDIANA

CITY           SKY/WX    TMP DP  RH WIND       PRES   REMARKS
EVANSVILLE     MOCLDY    50  49  96 W3        29.79R
6HR MIN TEMP:  50; 6HR MAX TEMP:  53; 6HR PCP:  0.11;

HUNTINGBURG +  MOCLDY    48  48 100 SW5       29.77S
6HR MIN TEMP:  48; 6HR MAX TEMP:  51; 6HR PCP:  0.16;


$$

INZ062-063-066-070>080-084-089>092-240700-
SOUTH CENTRAL AND SOUTHEAST INDIANA

CITY           SKY/WX    TMP DP  RH WIND       PRES   REMARKS
BLOOMINGTON    LGT RAIN  50  47  89 W6        29.72S
6HR MIN TEMP:  49; 6HR MAX TEMP:  50; 6HR PCP:  0.08;

MADISON *+     CLOUDY    48  45  87 SW6       29.78S
SEYMOUR +      LGT RAIN  50  46  87 SW12      29.75S

$$





USA.gov is the U.S. government's official web portal to all federal, state and local government web resources and services.